COSMOS 588

Satellite information

Favourite Embed

Satellite Type and Status

PAYLOADIN ORBIT

Key statistics

Satellite COSMOS 588 at a glance.

Uptime

18970

Days in orbit

Revolutions

≈ 12.5

Per day

Orbit

LEO

Low Earth Orbit

Inclination

74.0

Latest

Satellite identification and parameters

Extended collection of information and parameters for COSMOS 588.

Object identification

Identified? True

Debris? False

Object name: COSMOS 588

International designator: 1973-069A

Object number (NORAD): 6845

Object ID (CCSDS): 6845

Country: COMMONWEALTH OF INDEPENDENT STATES (CIS)

Current information (Y/N): Y

RCS size: MEDIUM

Orbital parameters

Period: 115.326 minutes

Inclination: 74.0048 deg

SMA: 7848.364 km

Apoapsis: 1492.926 km

Periapsis: 1447.532 km

RAAN: 5.4025 deg

Eccentricy: 0.00289192

Argument of periapsis: 216.4531 deg

Mean anomaly: 154.5714 deg

Mean motion: 12.48630886 rev/day

Mean motion (dot): -0.00000014 rev/day2

B* drag term: 0.000010260729 1/REarth

Two-line elements (TLE)

Creation date: Sept. 8, 2025, 6:18 p.m.

Reference frame: TEME

Reference center: EARTH

Epoch: Sept. 8, 2025, 2:01 p.m. UTC

TLE line 0: 0 COSMOS 588

TLE line 1: 1 06845U 73069A 25251.58407185 -.00000014 00000-0 10261-4 0 9991

TLE line 2: 2 06845 74.0048 5.4025 0028919 216.4531 154.5714 12.48630886367251

Live tracking on map

Real-time ground track for satellite COSMOS 588.

In-orbit conjunctions

A list of the most updated potential collisions computed for object COSMOS 588.

Target Orbit TCA Probability of collision Miss distance Type
DELTA 1 DEB SSO 2025-02-01 03:00:17 0.0002068184 317.0 (m) DEBRIS

Associated space launch

Military communications satellites

COSMOS 588 was lifted into orbit during the mission ‘Kosmos-3M | Strela-1M 49-56’, on board a Kosmos-3M space rocket.

The launch took place on Oct. 2, 1973, 9:46 p.m. from 132/2.

For more information about the launch, click the button.

Launch to space Kosmos-3M | Strela-1M 49-56
Kosmos-3M | Strela-1M 49-56

Agency: N/A

Status: Launch Successful

Launch date: Oct. 2, 1973, 9:46 p.m. UTC

Rocket: Kosmos-3M

Launch pad: 132/2

Location: Plesetsk Cosmodrome, Russian Federation

...

Latest news about this satellite

There are no fresh news available about this satellite. Check back as we update our databases every day.


Newsletter sign-up

Weekly statistics, charts and insights to help you stay on top of the space industry.